This demonstration page uses our WeatherBlox Daily Observations layout. Learn more.

Left ArrowRight Arrow

39.08367, -84.50855

Hourly Observations for September 25, 2015

Temp ( °F °C ) Dew Point ( °F °C ) Humidity (%) Winds ( mph kmh ) Pressure ( in mb ) Visibility ( mi km ) Precip ( " mm )
12:53 am 00:53 Clear with Mist and Fog 56 13.3 56 13.3 100 100 undefined N/A 30.17 1022 5 8 0.00 0.00
1:53 am 01:53 Clear with Mist and Fog 55 12.8 55 12.8 100 100 undefined N/A 30.17 1022 3 5 0.00 0.00
1:55 am 01:55 Clear with Mist and Fog 55 12.8 55 12.8 100 100 undefined N/A 30.18 1022 2 2 0.00 0.00
2:11 am 02:11 Clear with Mist and Fog 56 13.3 56 13.3 100 100 undefined N/A 30.18 1022 3 5 0.00 0.00
2:18 am 02:18 Clear with Mist and Fog 54 12.2 54 12.2 100 100 undefined N/A 30.18 1022 2 2 0.00 0.00
2:29 am 02:29 Clear with Mist and Fog 53 11.7 53 11.7 100 100 undefined N/A 30.18 1022 3 5 0.00 0.00
2:53 am 02:53 Clear with Mist and Fog 54 12.2 53 11.7 97 97 undefined N/A 30.15 1021 5 8 0.00 0.00
2:56 am 02:56 Clear with Mist and Fog 54 12 54 12 100 100 undefined N/A 30.15 1021 1 2 0.00 0.00
3:03 am 03:03 Clear with Fog 55 13 55 13 100 100 undefined N/A 30.15 1021 1 1 0.00 0.00
3:09 am 03:09 Clear with Mist and Fog 55 12.8 55 12.8 100 100 undefined N/A 30.15 1021 3 5 0.00 0.00
3:16 am 03:16 Clear with Mist and Fog 55 13 55 13 100 100 undefined N/A 30.15 1021 1 1 0.00 0.00
3:27 am 03:27 Clear with Mist and Fog 54 12.2 53 11.7 97 97 undefined N/A 30.15 1021 3 4 0.00 0.00
3:34 am 03:34 Clear with Mist and Fog 55 12.8 54 12.2 96 96 undefined N/A 30.15 1021 1 1 0.00 0.00
3:46 am 03:46 Clear with Mist and Fog 54 12 54 12 100 100 undefined N/A 30.15 1021 2 3 0.00 0.00
3:49 am 03:49 Clear with Mist and Fog 54 12 54 12 100 100 undefined N/A 30.15 1021 3 5 0.00 0.00
3:53 am 03:53 Clear with Mist and Fog 54 12.2 54 12.2 100 100 undefined N/A 30.14 1021 2 3 0.00 0.00
4:07 am 04:07 Clear with Mist and Fog 54 12.2 53 11.7 97 97 undefined N/A 30.15 1021 5 8 0.00 0.00
4:22 am 04:22 Clear with Mist and Fog 55 13 55 13 100 100 undefined N/A 30.15 1021 3 4 0.00 0.00
4:31 am 04:31 Clear with Mist and Fog 54 12.2 54 12.2 100 100 undefined N/A 30.15 1021 5 8 0.00 0.00
4:35 am 04:35 Clear with Mist and Fog 54 12.2 54 12.2 100 100 undefined N/A 30.15 1021 2 2 0.00 0.00
4:43 am 04:43 Mostly Cloudy with Mist and Fog 54 12.2 54 12.2 100 100 undefined N/A 30.15 1021 1 1 0.00 0.00
4:48 am 04:48 Mostly Clear with Mist and Fog 54 12 54 12 100 100 undefined N/A 30.15 1021 1 2 0.00 0.00
4:53 am 04:53 Clear with Mist and Fog 54 12.2 54 12.2 100 100 undefined N/A 30.14 1021 2 3 0.00 0.00
5:00 am 05:00 Clear with Mist and Fog 55 13 55 13 100 100 undefined N/A 30.15 1021 5 8 0.00 0.00
5:21 am 05:21 Clear with Mist and Fog 54 12.2 54 12.2 100 100 undefined N/A 30.15 1021 2 3 0.00 0.00
5:31 am 05:31 Clear with Mist and Fog 55 12.8 55 12.8 100 100 undefined N/A 30.15 1021 1 1 0.00 0.00
5:35 am 05:35 Clear with Mist and Fog 54 12.2 54 12.2 100 100 undefined N/A 30.15 1021 2 3 0.00 0.00
5:53 am 05:53 Clear with Mist and Fog 54 12.2 54 12.2 100 100 undefined N/A 30.14 1021 6 10 0.00 0.00
6:20 am 06:20 Clear with Mist and Fog 54 12 54 12 100 100 undefined N/A 30.15 1021 2 3 0.00 0.00
6:35 am 06:35 Clear 53 11.7 53 11.7 100 100 undefined N/A 30.15 1021 N/A 0.00 0.00
6:42 am 06:42 Clear with Mist and Fog 54 12 54 12 100 100 undefined N/A 30.15 1021 1 1 0.00 0.00
6:53 am 06:53 Clear with Fog 52 11.1 52 11.1 100 100 Calm 30.16 1021 10 16 0.00 0.00
7:53 am 07:53 Sunny with Fog 52 11.1 52 11.1 100 100 Calm 30.18 1022 10 16 0.00 0.00
8:53 am 08:53 Sunny 56 13.3 56 13.3 100 100 Calm 30.18 1022 10 16 0.00 0.00
9:53 am 09:53 undefined 61 16.1 56 13.3 84 84 NNE 5 7 30.19 1022 10 16 0.00 0.00
10:53 am 10:53 Sunny 66 18.9 57 13.9 73 73 NNE 7 11 30.19 1022 10 16 0.00 0.00
11:53 am 11:53 Sunny 71 21.7 57 13.9 61 61 ENE 8 13 30.18 1022 10 16 0.00 0.00
12:53 pm 12:53 Sunny 72 22.2 54 12.2 53 53 Calm 30.17 1022 10 16 0.00 0.00
1:53 pm 13:53 Sunny 74 23.3 51 10.6 45 45 ESE 7 11 30.16 1021 10 16 0.00 0.00
2:53 pm 14:53 Partly Cloudy 74 23.3 52 11.1 46 46 E 8 13 30.15 1021 10 16 0.00 0.00
3:53 pm 15:53 Sunny 73 22.8 49 9.4 43 43 E 9 15 30.15 1021 10 16 0.00 0.00
4:53 pm 16:53 Partly Cloudy 72 22.2 49 9.4 44 44 ESE 6 9 30.14 1021 10 16 0.00 0.00
5:53 pm 17:53 Mostly Cloudy 71 21.7 50 10 47 47 ESE 6 9 30.15 1021 10 16 0.00 0.00
6:53 pm 18:53 Mostly Cloudy 69 20.6 52 11.1 55 55 ESE 5 7 30.16 1021 10 16 0.00 0.00
7:53 pm 19:53 Partly Cloudy 65 18.3 57 13.9 76 76 Calm 30.17 1022 10 16 0.00 0.00
8:53 pm 20:53 Mostly Cloudy 68 20 53 11.7 59 59 ENE 3 6 30.18 1022 10 16 0.00 0.00
9:53 pm 21:53 Cloudy 67 19.4 55 12.8 66 66 Calm 30.20 1023 10 16 0.00 0.00
10:53 pm 22:53 Mostly Cloudy 66 18.9 54 12.2 65 65 ESE 3 6 30.20 1023 10 16 0.00 0.00
11:53 pm 23:53 Mostly Cloudy with Light Rain 65 18.3 55 12.8 70 70 E 6 9 30.21 1023 10 16 0.00 0.03

Powered by AerisWeather